Terminal Aerodrome Forecast
Issued by NWS Goodland, KS

Home | Current Version | Previous Version | Text Only | Print | Product List | Glossary On
Versions: 1 2 3 4 5 6 7 8 9 10 11 12 13 14 15 16 17 18 19 20 21 22
000
FTUS43 KGLD 281120
TAFGLD
TAF
KGLD 281120Z 2812/2912 30008KT P6SM SCT007
      TEMPO 2812/2816 BKN007
     FM281600 33011KT P6SM SCT015
     FM281900 01011KT P6SM SCT030
     FM282300 03013G19KT P6SM BKN025
     FM290300 02018G25KT 6SM -RASN BR OVC007
     FM290800 02015G23KT 4SM -SN BR OVC007=

USA.gov is the U.S. government's official web portal to all federal, state and local government web resources and services.